| time (UTC) | temp F | wind direction | speed MPH | gust MPH | rain 1hr in | rain 24hr in | rain mn in | humidity % | barometer mb |
| 20260505183052 | 50 | 0 | 2.0 | 4.0 | 0.00 | 0.00 | 0.00 | 88 | |
| 20260505180051 | 51 | 0 | 1.0 | 4.0 | 0.00 | 0.00 | 0.00 | 87 | |
| 20260505173051 | 50 | 248 | 1.0 | 5.0 | 0.00 | 0.00 | 0.00 | 86 | |
| 20260505170051 | 49 | 158 | 2.0 | 10.0 | 0.00 | 0.00 | 0.00 | 85 | |
| 20260505163051 | 49 | 203 | 2.0 | 7.0 | 0.00 | 0.00 | 0.00 | 91 | |
| 20260505153051 | 46 | 0.0 | 3.0 | 0.00 | 0.00 | 0.00 | 92 | ||
| 20260505130139 | 44 | 180 | 2.0 | 4.0 | 0.00 | 0.00 | 0.00 | 92 | |
| 20260505123051 | 44 | 225 | 2.0 | 5.0 | 0.00 | 0.00 | 0.00 | 93 | |
| 20260505120051 | 45 | 203 | 2.0 | 4.0 | 0.00 | 0.00 | 0.00 | 93 | |
| 20260505113050 | 45 | 225 | 2.0 | 4.0 | 0.00 | 0.00 | 0.00 | 93 | |
| 20260505110139 | 45 | 203 | 2.0 | 5.0 | 0.00 | 0.00 | 0.00 | 93 | |
| 20260505100050 | 46 | 203 | 2.0 | 3.0 | 0.00 | 0.00 | 0.00 | 92 | |
| 20260505093050 | 46 | 203 | 2.0 | 5.0 | 0.00 | 0.00 | 0.00 | 92 | |
| 20260505090050 | 46 | 225 | 2.0 | 5.0 | 0.00 | 0.00 | 0.00 | 92 | |
| 20260505083114 | 46 | 180 | 2.0 | 6.0 | 0.00 | 0.00 | 0.00 | 91 | |
| 20260505080114 | 46 | 180 | 2.0 | 5.0 | 0.00 | 0.00 | 0.00 | 91 | |
| 20260505073049 | 46 | 180 | 2.0 | 4.0 | 0.00 | 0.00 | 0.00 | 91 | |
| 20260505070050 | 46 | 180 | 2.0 | 5.0 | 0.00 | 0.00 | 0.01 | 91 | |
| 20260505063050 | 46 | 225 | 2.0 | 4.0 | 0.00 | 0.00 | 0.01 | 90 | |
| 20260505060050 | 47 | 203 | 2.0 | 7.0 | 0.00 | 0.00 | 0.01 | 89 | |
| 20260505053050 | 47 | 180 | 2.0 | 9.0 | 0.00 | 0.00 | 0.01 | 88 | |
| 20260505040050 | 49 | 225 | 2.0 | 7.0 | 0.00 | 0.00 | 0.01 | 85 | |
| 20260505033049 | 50 | 203 | 1.0 | 4.0 | 0.00 | 0.00 | 0.01 | 83 | |
| 20260505030049 | 51 | 0.0 | 1.0 | 0.00 | 0.00 | 0.01 | 80 | ||
| 20260505023113 | 52 | 0 | 1.0 | 4.0 | 0.00 | 0.00 | 0.01 | 77 | |
| 20260505020049 | 54 | 23 | 2.0 | 4.0 | 0.00 | 0.00 | 0.01 | 74 | |
| 20260505013049 | 54 | 23 | 2.0 | 8.0 | 0.00 | 0.00 | 0.01 | 73 | |
| 20260505010049 | 55 | 0 | 2.0 | 9.0 | 0.00 | 0.00 | 0.01 | 71 | |
| 20260505003049 | 56 | 0 | 3.0 | 12.0 | 0.00 | 0.00 | 0.01 | 70 | |
| 20260505000049 | 58 | 0 | 3.0 | 12.0 | 0.00 | 0.00 | 0.01 | 69 | |
| 20260504233049 | 56 | 338 | 4.0 | 11.0 | 0.00 | 0.00 | 0.01 | 71 | |
| 20260504230049 | 57 | 0 | 3.0 | 12.0 | 0.00 | 0.00 | 0.01 | 72 | |
| 20260504223050 | 60 | 23 | 3.0 | 9.0 | 0.00 | 0.00 | 0.01 | 67 | |
| 20260504220051 | 57 | 0 | 6.0 | 14.0 | 0.00 | 0.00 | 0.01 | 75 | |
| 20260504213051 | 56 | 0 | 5.0 | 13.0 | 0.00 | 0.00 | 0.01 | 78 | |
| 20260504210051 | 56 | 0 | 3.0 | 11.0 | 0.00 | 0.00 | 0.01 | 80 | |
| 20260504203051 | 54 | 338 | 3.0 | 11.0 | 0.00 | 0.00 | 0.01 | 84 | |
| 20260504200050 | 53 | 45 | 2.0 | 7.0 | 0.00 | 0.00 | 0.01 | 84 | |
| 20260504193050 | 53 | 0 | 2.0 | 9.0 | 0.00 | 0.00 | 0.01 | 83 | |
| 20260504190050 | 52 | 0 | 3.0 | 9.0 | 0.00 | 0.00 | 0.01 | 86 |